Time,TemperatureF,DewpointF,PressureIn,WindDirection,WindDirectionDegrees,WindSpeedMPH,WindSpeedGustMPH,Humidity,HourlyPrecipIn,Conditions,Clouds,dailyrainin,SoftwareType,DateUTC
2013-01-16 00:02:00,37.8,14.0,30.40,NNE,25,1.0,1.0,38,0.00,,,0.00,weatherlink.com 1.10,2013-01-16 07:02:00,
2013-01-16 00:17:00,38.1,14.0,30.40,NNE,26,0.0,0.0,38,0.00,,,0.00,weatherlink.com 1.10,2013-01-16 07:17:00,
2013-01-16 00:32:00,37.1,15.0,30.40,NNE,25,0.0,1.0,40,0.00,,,0.00,weatherlink.com 1.10,2013-01-16 07:32:00,
2013-01-16 00:47:00,38.2,14.0,30.40,NNE,32,0.0,2.0,37,0.00,,,0.00,weatherlink.com 1.10,2013-01-16 07:47:00,
2013-01-16 01:02:00,36.9,15.0,30.40,WNW,295,0.0,2.0,40,0.00,,,0.00,weatherlink.com 1.10,2013-01-16 08:02:00,
2013-01-16 01:17:00,35.7,14.0,30.39,WSW,238,0.0,1.0,41,0.00,,,0.00,weatherlink.com 1.10,2013-01-16 08:17:00,
2013-01-16 01:33:00,34.8,15.0,30.39,SSW,203,1.0,1.0,44,0.00,,,0.00,weatherlink.com 1.10,2013-01-16 08:33:00,
2013-01-16 01:48:00,34.8,14.0,30.39,SSE,163,0.0,1.0,42,0.00,,,0.00,weatherlink.com 1.10,2013-01-16 08:48:00,
2013-01-16 02:03:00,38.4,14.0,30.39,NNE,23,2.0,3.0,37,0.00,,,0.00,weatherlink.com 1.10,2013-01-16 09:03:00,
2013-01-16 02:18:00,39.0,14.0,30.39,NE,44,2.0,2.0,36,0.00,,,0.00,weatherlink.com 1.10,2013-01-16 09:18:00,
2013-01-16 02:33:00,39.6,14.0,30.38,NE,49,3.0,4.0,35,0.00,,,0.00,weatherlink.com 1.10,2013-01-16 09:33:00,
2013-01-16 02:48:00,39.7,14.0,30.38,NNE,16,2.0,4.0,35,0.00,,,0.00,weatherlink.com 1.10,2013-01-16 09:48:00,
2013-01-16 03:03:00,40.6,14.0,30.38,NNW,345,1.0,4.0,34,0.00,,,0.00,weatherlink.com 1.10,2013-01-16 10:03:00,
2013-01-16 03:18:00,40.8,14.0,30.38,NNE,23,2.0,4.0,34,0.00,,,0.00,weatherlink.com 1.10,2013-01-16 10:18:00,
2013-01-16 03:33:00,41.3,15.0,30.37,North,349,2.0,5.0,34,0.00,,,0.00,weatherlink.com 1.10,2013-01-16 10:33:00,
2013-01-16 03:48:00,41.6,15.0,30.37,NE,46,2.0,5.0,34,0.00,,,0.00,weatherlink.com 1.10,2013-01-16 10:48:00,
2013-01-16 04:03:00,41.5,15.0,30.37,NNW,345,2.0,5.0,34,0.00,,,0.00,weatherlink.com 1.10,2013-01-16 11:03:00,
2013-01-16 04:18:00,42.3,15.0,30.37,NE,48,4.0,6.0,33,0.00,,,0.00,weatherlink.com 1.10,2013-01-16 11:18:00,
2013-01-16 04:33:00,41.5,15.0,30.36,NE,39,4.0,6.0,34,0.00,,,0.00,weatherlink.com 1.10,2013-01-16 11:33:00,
2013-01-16 04:48:00,41.1,15.0,30.36,NNE,13,3.0,6.0,34,0.00,,,0.00,weatherlink.com 1.10,2013-01-16 11:48:00,
2013-01-16 05:03:00,41.6,15.0,30.36,North,1,3.0,5.0,34,0.00,,,0.00,weatherlink.com 1.10,2013-01-16 12:03:00,
2013-01-16 05:18:00,41.2,15.0,30.36,NNW,328,2.0,3.0,35,0.00,,,0.00,weatherlink.com 1.10,2013-01-16 12:18:00,
2013-01-16 05:33:00,40.0,15.0,30.37,NW,316,2.0,2.0,37,0.00,,,0.00,weatherlink.com 1.10,2013-01-16 12:33:00,
2013-01-16 05:48:00,39.8,15.0,30.36,NNW,345,4.0,4.0,37,0.00,,,0.00,weatherlink.com 1.10,2013-01-16 12:48:00,
2013-01-16 06:03:00,39.7,15.0,30.37,WNW,285,0.0,3.0,37,0.00,,,0.00,weatherlink.com 1.10,2013-01-16 13:03:00,
2013-01-16 06:18:00,38.8,15.0,30.38,WNW,284,0.0,0.0,38,0.00,,,0.00,weatherlink.com 1.10,2013-01-16 13:18:00,
2013-01-16 06:33:00,37.5,15.0,30.38,NNW,340,0.0,1.0,40,0.00,,,0.00,weatherlink.com 1.10,2013-01-16 13:33:00,
2013-01-16 06:48:00,38.0,16.0,30.38,NE,49,0.0,2.0,40,0.00,,,0.00,weatherlink.com 1.10,2013-01-16 13:48:00,
2013-01-16 07:03:00,37.5,15.0,30.38,ENE,72,0.0,0.0,40,0.00,,,0.00,weatherlink.com 1.10,2013-01-16 14:03:00,
2013-01-16 07:18:00,34.8,15.0,30.38,SSE,162,3.0,3.0,44,0.00,,,0.00,weatherlink.com 1.10,2013-01-16 14:18:00,
2013-01-16 07:34:00,39.5,16.0,30.38,NNW,335,1.0,3.0,38,0.00,,,0.00,weatherlink.com 1.10,2013-01-16 14:34:00,
2013-01-16 07:48:00,39.1,16.0,30.38,ENE,58,1.0,3.0,39,0.00,,,0.00,weatherlink.com 1.10,2013-01-16 14:48:00,
2013-01-16 08:03:00,41.7,17.0,30.38,NNE,30,5.0,6.0,37,0.00,,,0.00,weatherlink.com 1.10,2013-01-16 15:03:00,
2013-01-16 08:19:00,43.1,17.0,30.38,North,9,4.0,7.0,35,0.00,,,0.00,weatherlink.com 1.10,2013-01-16 15:19:00,
2013-01-16 08:33:00,44.0,17.0,30.39,NE,36,4.0,7.0,34,0.00,,,0.00,weatherlink.com 1.10,2013-01-16 15:33:00,
2013-01-16 08:49:00,44.9,17.0,30.39,NNE,29,1.0,6.0,33,0.00,,,0.00,weatherlink.com 1.10,2013-01-16 15:49:00,
2013-01-16 09:04:00,45.9,18.0,30.39,ENE,63,3.0,6.0,33,0.00,,,0.00,weatherlink.com 1.10,2013-01-16 16:04:00,
2013-01-16 09:19:00,46.3,18.0,30.40,NW,326,3.0,6.0,32,0.00,,,0.00,weatherlink.com 1.10,2013-01-16 16:19:00,
2013-01-16 09:34:00,47.2,19.0,30.40,WNW,293,1.0,9.0,33,0.00,,,0.00,weatherlink.com 1.10,2013-01-16 16:34:00,
2013-01-16 09:49:00,48.1,20.0,30.40,North,353,3.0,9.0,33,0.00,,,0.00,weatherlink.com 1.10,2013-01-16 16:49:00,
2013-01-16 10:04:00,49.6,21.0,30.40,NNE,28,6.0,7.0,32,0.00,,,0.00,weatherlink.com 1.10,2013-01-16 17:04:00,
2013-01-16 10:20:00,50.7,21.0,30.40,NNE,27,8.0,12.0,31,0.00,,,0.00,weatherlink.com 1.10,2013-01-16 17:20:00,
2013-01-16 10:34:00,51.7,21.0,30.40,North,357,3.0,8.0,30,0.00,,,0.00,weatherlink.com 1.10,2013-01-16 17:34:00,
2013-01-16 10:49:00,52.9,21.0,30.40,West,263,3.0,9.0,29,0.00,,,0.00,weatherlink.com 1.10,2013-01-16 17:49:00,
2013-01-16 11:04:00,54.1,21.0,30.39,NNE,25,10.0,10.0,28,0.00,,,0.00,weatherlink.com 1.10,2013-01-16 18:04:00,
2013-01-16 11:20:00,54.5,20.0,30.38,WNW,300,4.0,12.0,26,0.00,,,0.00,weatherlink.com 1.10,2013-01-16 18:20:00,
2013-01-16 11:35:00,55.3,21.0,30.37,NE,44,5.0,11.0,26,0.00,,,0.00,weatherlink.com 1.10,2013-01-16 18:35:00,
2013-01-16 11:50:00,56.2,21.0,30.36,NE,44,7.0,10.0,25,0.00,,,0.00,weatherlink.com 1.10,2013-01-16 18:50:00,
2013-01-16 12:05:00,56.7,20.0,30.35,NE,53,7.0,10.0,24,0.00,,,0.00,weatherlink.com 1.10,2013-01-16 19:05:00,
2013-01-16 12:20:00,57.7,20.0,30.34,NE,42,4.0,10.0,23,0.00,,,0.00,weatherlink.com 1.10,2013-01-16 19:20:00,
2013-01-16 12:35:00,58.3,19.0,30.33,NNE,20,6.0,9.0,22,0.00,,,0.00,weatherlink.com 1.10,2013-01-16 19:35:00,
2013-01-16 12:50:00,58.6,20.0,30.31,North,353,9.0,10.0,22,0.00,,,0.00,weatherlink.com 1.10,2013-01-16 19:50:00,
2013-01-16 13:05:00,59.8,20.0,30.31,NNW,344,6.0,10.0,21,0.00,,,0.00,weatherlink.com 1.10,2013-01-16 20:05:00,
2013-01-16 13:20:00,59.8,20.0,30.30,NNE,26,8.0,10.0,21,0.00,,,0.00,weatherlink.com 1.10,2013-01-16 20:20:00,
2013-01-16 13:35:00,60.2,20.0,30.28,NW,319,4.0,11.0,21,0.00,,,0.00,weatherlink.com 1.10,2013-01-16 20:35:00,
2013-01-16 13:50:00,60.8,20.0,30.28,NE,39,10.0,10.0,21,0.00,,,0.00,weatherlink.com 1.10,2013-01-16 20:50:00,
2013-01-16 14:05:00,60.9,22.0,30.27,NNW,335,9.0,12.0,22,0.00,,,0.00,weatherlink.com 1.10,2013-01-16 21:05:00,
2013-01-16 14:20:00,60.6,21.0,30.26,NE,36,6.0,11.0,22,0.00,,,0.00,weatherlink.com 1.10,2013-01-16 21:20:00,
2013-01-16 14:36:00,61.5,21.0,30.25,NE,51,6.0,11.0,21,0.00,,,0.00,weatherlink.com 1.10,2013-01-16 21:36:00,
2013-01-16 14:51:00,61.3,22.0,30.25,NW,316,4.0,13.0,22,0.00,,,0.00,weatherlink.com 1.10,2013-01-16 21:51:00,
2013-01-16 15:06:00,61.7,21.0,30.25,NW,316,8.0,14.0,21,0.00,,,0.00,weatherlink.com 1.10,2013-01-16 22:06:00,
2013-01-16 15:21:00,61.8,22.0,30.24,North,6,8.0,11.0,22,0.00,,,0.00,weatherlink.com 1.10,2013-01-16 22:21:00,
2013-01-16 15:36:00,61.9,21.0,30.24,WNW,298,8.0,13.0,21,0.00,,,0.00,weatherlink.com 1.10,2013-01-16 22:36:00,
2013-01-16 15:51:00,62.4,22.0,30.24,NW,324,6.0,11.0,21,0.00,,,0.00,weatherlink.com 1.10,2013-01-16 22:51:00,
2013-01-16 16:06:00,62.3,23.0,30.24,North,5,4.0,10.0,22,0.00,,,0.00,weatherlink.com 1.10,2013-01-16 23:06:00,
2013-01-16 16:21:00,62.1,23.0,30.23,WNW,297,3.0,11.0,22,0.00,,,0.00,weatherlink.com 1.10,2013-01-16 23:21:00,
2013-01-16 16:36:00,61.9,22.0,30.23,NNE,15,8.0,10.0,22,0.00,,,0.00,weatherlink.com 1.10,2013-01-16 23:36:00,
2013-01-16 16:52:00,61.4,22.0,30.23,North,355,7.0,12.0,22,0.00,,,0.00,weatherlink.com 1.10,2013-01-16 23:52:00,
2013-01-16 17:06:00,61.2,23.0,30.23,NNW,335,7.0,11.0,23,0.00,,,0.00,weatherlink.com 1.10,2013-01-17 00:06:00,
2013-01-16 17:21:00,60.8,24.0,30.24,WNW,293,5.0,9.0,24,0.00,,,0.00,weatherlink.com 1.10,2013-01-17 00:21:00,
2013-01-16 17:36:00,59.8,23.0,30.24,NNE,23,4.0,6.0,24,0.00,,,0.00,weatherlink.com 1.10,2013-01-17 00:36:00,
2013-01-16 17:51:00,58.6,24.0,30.24,NW,323,2.0,6.0,26,0.00,,,0.00,weatherlink.com 1.10,2013-01-17 00:51:00,
2013-01-16 18:06:00,57.2,24.0,30.24,NNW,346,2.0,6.0,28,0.00,,,0.00,weatherlink.com 1.10,2013-01-17 01:06:00,
2013-01-16 18:20:00,56.0,24.0,30.24,NW,315,0.0,3.0,29,0.00,,,0.00,weatherlink.com 1.10,2013-01-17 01:20:00,
2013-01-16 18:50:00,53.8,25.0,30.24,NNW,333,0.0,1.0,33,0.00,,,0.00,weatherlink.com 1.10,2013-01-17 01:50:00,
2013-01-16 19:06:00,52.8,26.0,30.24,NNW,338,1.0,1.0,35,0.00,,,0.00,weatherlink.com 1.10,2013-01-17 02:06:00,
2013-01-16 19:30:00,51.9,26.0,30.25,North,11,0.0,1.0,36,0.00,,,0.00,weatherlink.com 1.10,2013-01-17 02:30:00,
2013-01-16 19:37:00,51.0,26.0,30.25,North,10,0.0,0.0,38,0.00,,,0.00,weatherlink.com 1.10,2013-01-17 02:37:00,
2013-01-16 19:51:00,50.4,25.0,30.25,NW,324,0.0,2.0,38,0.00,,,0.00,weatherlink.com 1.10,2013-01-17 02:51:00,
2013-01-16 20:05:00,51.2,25.0,30.25,NW,318,0.0,2.0,36,0.00,,,0.00,weatherlink.com 1.10,2013-01-17 03:05:00,
2013-01-16 20:20:00,50.4,25.0,30.25,NW,317,0.0,1.0,37,0.00,,,0.00,weatherlink.com 1.10,2013-01-17 03:20:00,
2013-01-16 20:35:00,49.1,25.0,30.25,NW,322,0.0,0.0,39,0.00,,,0.00,weatherlink.com 1.10,2013-01-17 03:35:00,
2013-01-16 20:50:00,47.9,25.0,30.25,NW,322,0.0,0.0,41,0.00,,,0.00,weatherlink.com 1.10,2013-01-17 03:50:00,
2013-01-16 21:05:00,48.5,25.0,30.25,NW,322,0.0,1.0,40,0.00,,,0.00,weatherlink.com 1.10,2013-01-17 04:05:00,
2013-01-16 21:21:00,48.5,25.0,30.25,WNW,302,1.0,1.0,40,0.00,,,0.00,weatherlink.com 1.10,2013-01-17 04:21:00,
2013-01-16 21:35:00,48.1,24.0,30.24,NNW,333,2.0,4.0,39,0.00,,,0.00,weatherlink.com 1.10,2013-01-17 04:35:00,
2013-01-16 21:50:00,47.9,24.0,30.24,NW,312,0.0,1.0,40,0.00,,,0.00,weatherlink.com 1.10,2013-01-17 04:50:00,
2013-01-16 22:06:00,45.8,23.0,30.24,SSE,166,0.0,2.0,41,0.00,,,0.00,weatherlink.com 1.10,2013-01-17 05:06:00,
2013-01-16 22:21:00,46.2,24.0,30.23,WNW,297,0.0,3.0,42,0.00,,,0.00,weatherlink.com 1.10,2013-01-17 05:21:00,
2013-01-16 22:36:00,46.0,24.0,30.23,WNW,297,0.0,0.0,42,0.00,,,0.00,weatherlink.com 1.10,2013-01-17 05:36:00,
2013-01-16 22:51:00,44.9,24.0,30.23,WNW,295,0.0,0.0,44,0.00,,,0.00,weatherlink.com 1.10,2013-01-17 05:51:00,
2013-01-16 23:06:00,43.2,24.0,30.23,SSW,195,0.0,1.0,46,0.00,,,0.00,weatherlink.com 1.10,2013-01-17 06:06:00,
2013-01-16 23:21:00,44.7,24.0,30.23,NW,314,0.0,2.0,44,0.00,,,0.00,weatherlink.com 1.10,2013-01-17 06:21:00,
2013-01-16 23:36:00,45.4,24.0,30.22,WNW,298,1.0,2.0,43,0.00,,,0.00,weatherlink.com 1.10,2013-01-17 06:36:00,
2013-01-16 23:51:00,44.9,24.0,30.22,NW,316,1.0,2.0,44,0.00,,,0.00,weatherlink.com 1.10,2013-01-17 06:51:00,